DW7013 Weather Reports


time (UTC)temp
C
wind
direction
speed
KPH
gust
KPH
rain 1hr
cm
rain 24hr
cm
rain mn
cm
humidity
%
barometer
mb
20260508071230 10 157 0.0 0.0 0.00 0.00 0.00 87 1015.9
20260508070708 10 151 0.0 0.0 0.00 0.00 0.00 91 1015.9
20260508070211 10 151 0.0 0.0 0.00 0.00 0.00 94 1015.9
20260508065227 10 55 0.0 0.0 0.00 0.00 0.00 96 1015.9
20260508064216 8 55 0.0 0.0 0.00 0.03 0.00 96 1015.9
20260508063713 8 55 0.0 0.0 0.00 0.03 0.00 96 1015.9
20260508063218 8 55 0.0 0.0 0.00 0.03 0.00 96 1015.9
20260508062710 7 55 0.0 0.0 0.00 0.03 0.00 96 1015.9
20260508062218 7 55 0.0 0.0 0.00 0.03 0.00 96 1015.8
20260508061743 6 55 0.0 0.0 0.00 0.03 0.00 95 1015.8
20260508061222 6 55 0.0 0.0 0.00 0.03 0.00 96 1015.8
20260508060715 6 55 0.0 0.0 0.00 0.03 0.00 95 1015.7
20260508060222 5 55 0.0 0.0 0.00 0.03 0.00 95 1015.7
20260508055713 5 55 0.0 0.0 0.00 0.05 0.00 95 1015.7
20260508055206 5 55 0.0 0.0 0.00 0.05 0.00 95 1015.7
20260508054228 5 55 0.0 0.0 0.00 0.05 0.00 94 1015.7
20260508053731 5 55 0.0 0.0 0.00 0.05 0.00 94 1015.8
20260508053219 5 55 0.0 0.0 0.00 0.05 0.00 94 1015.8
20260508052721 5 55 0.0 0.0 0.00 0.05 0.00 94 1015.9
20260508052224 5 55 0.0 0.0 0.00 0.05 0.00 94 1015.8
20260508051718 5 55 0.0 0.0 0.00 0.05 0.00 94 1015.8
20260508051209 5 55 0.0 0.0 0.00 0.05 0.00 94 1015.8
20260508050716 5 55 0.0 0.0 0.00 0.05 0.00 94 1015.8
20260508050231 5 355 0.0 0.0 0.00 0.05 0.00 94 1015.8
20260508045227 5 355 0.0 3.2 0.00 0.08 0.00 94 1015.6
20260508044720 5 355 0.0 3.2 0.00 0.08 0.00 94 1015.6
20260508044227 5 346 0.0 0.0 0.00 0.08 0.00 94 1015.7
20260508043720 5 346 0.0 0.0 0.00 0.08 0.00 94 1015.7
20260508043220 5 346 0.0 0.0 0.00 0.10 0.00 94 1015.6
20260508042720 5 346 0.0 1.6 0.00 0.10 0.00 94 1015.7
20260508042219 5 346 0.0 1.6 0.00 0.10 0.00 94 1015.6
20260508041732 5 5 0.0 1.6 0.00 0.10 0.00 94 1015.5
20260508041206 5 341 0.0 0.0 0.00 0.10 0.00 94 1015.5
20260508040725 5 33 0.0 0.0 0.00 0.13 0.00 94 1015.4
20260508040215 5 5 0.0 4.8 0.00 0.13 0.00 94 1015.5
20260508035728 5 18 0.0 4.8 0.00 0.13 0.00 94 1015.5
20260508035230 5 0 0.0 4.8 0.00 0.15 0.00 94 1015.4
20260508034720 5 200 0.0 0.0 0.00 0.15 0.00 94 1015.5
20260508034229 5 199 0.0 0.0 0.00 0.15 0.00 94 1015.5
20260508033713 5 199 0.0 0.0 0.00 0.18 0.00 94 1015.5
20260508033228 5 200 0.0 0.0 0.00 0.18 0.00 94 1015.5
20260508032730 5 200 0.0 0.0 0.00 0.20 0.00 94 1015.4
20260508032228 5 200 0.0 0.0 0.00 0.20 0.00 94 1015.5
20260508031219 5 199 0.0 0.0 0.00 0.23 0.00 94 1015.4
20260508030716 5 199 0.0 0.0 0.00 0.23 0.00 94 1015.4
20260508030255 5 200 0.0 0.0 0.00 0.23 0.00 93 1015.4
20260508025712 5 200 0.0 0.0 0.00 0.25 0.00 93 1015.4
20260508025213 5 199 0.0 0.0 0.00 0.28 0.00 93 1015.3
20260508024218 5 200 0.0 0.0 0.00 0.33 0.00 93 1015.3
20260508023221 5 200 0.0 0.0 0.00 0.33 0.00 93 1015.4
20260508022215 5 199 0.0 0.0 0.00 0.36 0.00 93 1015.5
20260508021730 5 200 0.0 0.0 0.00 0.38 0.00 93 1015.5
20260508021226 5 199 0.0 0.0 0.00 0.41 0.00 93 1015.5
20260508015718 5 199 0.0 0.0 0.00 0.43 0.00 93 1015.4
20260508015223 5 199 0.0 0.0 0.00 0.43 0.00 93 1015.5
20260508014708 5 200 0.0 0.0 0.00 0.46 0.00 93 1015.4
20260508014227 5 199 0.0 0.0 0.00 0.46 0.00 93 1015.4
20260508013715 5 200 0.0 0.0 0.00 0.48 0.00 93 1015.3
20260508013215 5 199 0.0 0.0 0.00 0.48 0.00 92 1015.3
20260508012711 5 199 0.0 0.0 0.00 0.48 0.00 92 1015.3
20260508012211 5 199 0.0 0.0 0.00 0.48 0.00 92 1015.3
20260508011721 5 200 0.0 0.0 0.00 0.48 0.00 92 1015.3
20260508010720 5 200 0.0 0.0 0.00 0.51 0.00 92 1015.3
20260508010222 5 200 0.0 0.0 0.00 0.51 0.00 92 1015.3
20260508005731 5 200 0.0 0.0 0.00 0.51 0.00 92 1015.4
20260508005221 5 200 0.0 0.0 0.00 0.51 0.00 92 1015.4
20260508004740 5 199 0.0 0.0 0.00 0.51 0.00 92 1015.3
20260508004229 5 199 0.0 0.0 0.00 0.51 0.00 92 1015.4
20260508003714 5 199 0.0 0.0 0.00 0.51 0.00 92 1015.4
20260508003227 5 200 0.0 0.0 0.00 0.51 0.00 91 1015.4
20260508002718 5 200 0.0 0.0 0.00 0.51 0.00 91 1015.4
20260508002217 5 199 0.0 0.0 0.00 0.51 0.00 91 1015.4
20260508001713 5 199 0.0 0.0 0.00 0.51 0.00 91 1015.4
20260508001223 5 199 0.0 0.0 0.00 0.51 0.00 91 1015.4
20260508000720 5 200 0.0 0.0 0.00 0.51 0.00 91 1015.5
20260508000206 5 200 0.0 0.0 0.00 0.51 0.00 91 1015.5
20260507235726 5 200 0.0 0.0 0.00 0.51 0.00 91 1015.5
20260507235219 5 200 0.0 0.0 0.00 0.51 0.00 91 1015.6
20260507234725 5 200 0.0 0.0 0.00 0.51 0.00 91 1015.7
20260507234229 5 199 0.0 0.0 0.00 0.51 0.00 91 1015.7
20260507233231 5 200 0.0 0.0 0.00 0.51 0.00 91 1015.9
20260507232219 5 200 0.0 0.0 0.00 0.53 0.00 90 1016.1
20260507231717 5 200 0.0 0.0 0.00 0.53 0.00 91 1016.1
20260507231229 5 200 0.0 0.0 0.00 0.53 0.00 90 1016.2
20260507230729 5 200 0.0 0.0 0.00 0.53 0.00 90 1016.1
20260507230247 5 154 0.0 0.0 0.00 0.56 0.00 90 1016.1
20260507225722 5 154 0.0 0.0 0.00 0.56 0.00 90 1016.1
20260507225231 5 154 0.0 0.0 0.00 0.56 0.00 90 1016.2
20260507224733 5 154 0.0 0.0 0.00 0.58 0.00 90 1016.2
20260507224231 5 140 0.0 0.0 0.00 0.58 0.00 90 1016.1
20260507223729 5 140 0.0 0.0 0.00 0.58 0.00 90 1016.1
20260507223219 5 140 0.0 0.0 0.00 0.61 0.00 90 1016.1
20260507222707 5 140 0.0 0.0 0.00 0.61 0.00 90 1016.2
20260507222227 5 141 0.0 0.0 0.00 0.61 0.00 90 1016.2
20260507221728 5 142 0.0 0.0 0.00 0.64 0.00 89 1016.2
20260507221217 5 142 0.0 0.0 0.00 0.64 0.00 89 1016.2
20260507220729 5 66 0.0 0.0 0.00 0.64 0.00 89 1016.4
20260507220216 5 66 0.0 0.0 0.00 0.64 0.64 90 1016.4
20260507215725 5 66 0.0 1.6 0.00 0.64 0.64 90 1016.2
20260507215226 5 94 0.0 1.6 0.00 0.64 0.64 90 1016.4
20260507214209 5 316 0.0 0.0 0.00 0.64 0.64 89 1016.1
20260507213710 6 53 0.0 0.0 0.00 0.64 0.64 89 1016.2
20260507213216 6 52 0.0 0.0 0.00 0.64 0.64 89 1016.1
20260507212710 6 53 0.0 0.0 0.00 0.64 0.64 89 1016.1
20260507211725 6 53 0.0 0.0 0.00 0.64 0.64 89 1016.2
20260507211241 6 53 0.0 0.0 0.00 0.64 0.64 89 1016.1
20260507210714 6 52 0.0 0.0 0.00 0.64 0.64 89 1016.1
20260507205221 6 19 0.0 0.0 0.00 0.64 0.64 88 1016.1
20260507204720 6 343 0.0 0.0 0.00 0.64 0.64 88 1016.1
20260507204214 6 97 0.0 0.0 0.00 0.64 0.64 88 1016.1
20260507203719 6 338 0.0 0.0 0.00 0.64 0.64 88 1016.1
20260507203223 6 338 0.0 0.0 0.00 0.66 0.64 88 1016.0
20260507202728 6 5 0.0 0.0 0.00 0.66 0.64 88 1015.9
20260507202217 6 12 0.0 0.0 0.00 0.66 0.64 87 1015.9
20260507201724 6 5 0.0 0.0 0.00 0.66 0.64 87 1015.9
20260507201217 6 0 0.0 0.0 0.00 0.69 0.64 87 1015.9
20260507200721 6 355 0.0 4.8 0.00 0.69 0.64 87 1015.8
20260507200209 7 355 0.0 6.4 0.00 0.69 0.64 87 1015.9
20260507195732 7 355 0.0 6.4 0.00 0.69 0.64 87 1015.9
20260507195225 7 323 0.0 0.0 0.00 0.69 0.64 87 1015.7
20260507194712 7 355 0.0 0.0 0.00 0.69 0.64 86 1015.7
20260507194212 7 355 0.0 0.0 0.00 0.71 0.64 86 1015.6
20260507193721 7 355 0.0 0.0 0.00 0.71 0.64 86 1015.6
20260507193225 7 355 0.0 0.0 0.00 0.71 0.64 86 1015.6
20260507192716 7 355 0.0 3.2 0.00 0.71 0.64 85 1015.5
20260507192209 7 355 0.0 3.2 0.00 0.71 0.64 85 1015.4
20260507191721 8 355 0.0 4.8 0.00 0.71 0.64 85 1015.2
20260507191215 8 350 0.0 4.8 0.00 0.71 0.64 84 1015.3
20260507190720 8 355 0.0 4.8 0.00 0.71 0.64 84 1015.2
20260507190225 8 331 0.0 0.0 0.00 0.71 0.64 84 1015.3
20260507185729 8 5 0.0 11.3 0.00 0.71 0.64 84 1015.2
20260507185220 8 5 1.6 11.3 0.00 0.74 0.64 83 1015.2
20260507184727 9 342 1.6 11.3 0.00 0.74 0.64 82 1015.1
20260507184224 9 343 1.6 0.0 0.00 0.74 0.64 82 1015.0
20260507183720 9 336 0.0 0.0 0.00 0.74 0.64 83 1015.1
20260507183217 10 355 0.0 0.0 0.00 0.76 0.64 82 1015.0
20260507182717 10 355 0.0 0.0 0.00 0.76 0.64 82 1015.0
20260507181716 10 338 0.0 0.0 0.00 0.79 0.64 80 1015.1
20260507181222 10 335 0.0 0.0 0.00 0.79 0.64 80 1015.1
20260507180227 10 315 0.0 0.0 0.00 0.84 0.64 78 1015.1
20260507175713 11 325 0.0 0.0 0.00 0.84 0.64 77 1015.1
20260507175228 11 319 0.0 0.0 0.00 0.86 0.64 76 1015.1
20260507174732 11 315 0.0 0.0 0.00 0.89 0.64 76 1015.0
20260507174211 11 324 0.0 0.0 0.00 0.89 0.64 75 1015.0
20260507173712 11 334 0.0 0.0 0.00 0.89 0.64 74 1015.0
20260507173216 11 5 0.0 4.8 0.00 0.91 0.64 73 1015.0
20260507172719 11 16 0.0 4.8 0.00 0.94 0.64 72 1015.0
20260507172218 12 319 0.0 4.8 0.00 0.94 0.64 71 1014.8
20260507171725 12 318 0.0 4.8 0.00 0.97 0.64 71 1014.8
20260507171216 12 317 0.0 11.3 0.00 0.99 0.64 70 1014.7
20260507170711 12 344 1.6 11.3 0.00 0.99 0.64 70 1014.6
20260507170225 12 315 1.6 11.3 0.00 0.99 0.64 68 1014.6
20260507165724 12 296 1.6 11.3 0.00 0.99 0.64 69 1014.6
20260507165209 12 297 4.8 11.3 0.00 1.02 0.64 67 1014.6
20260507164723 12 288 4.8 11.3 0.00 1.04 0.64 68 1014.6
20260507164214 12 290 4.8 9.7 0.00 1.07 0.64 66 1014.7
20260507163719 13 296 4.8 9.7 0.00 1.09 0.64 65 1014.6
20260507163219 12 285 1.6 11.3 0.00 1.09 0.64 64 1014.6
20260507162220 12 273 3.2 12.9 0.00 1.09 0.64 62 1014.6
20260507161209 12 292 4.8 19.3 0.00 1.12 0.64 62 1014.6
20260507160707 13 254 6.4 19.3 0.00 1.14 0.64 62 1014.6
20260507160224 12 332 4.8 19.3 0.00 1.14 0.64 62 1014.6
20260507155724 12 333 1.6 9.7 0.00 1.17 0.64 64 1014.6
20260507155219 12 355 1.6 9.7 0.00 1.17 0.64 62 1014.6
20260507154730 12 320 1.6 8.0 0.00 1.17 0.64 64 1014.6
20260507154224 12 271 3.2 11.3 0.00 1.17 0.64 66 1014.7
20260507153728 12 312 3.2 11.3 0.00 1.17 0.64 65 1014.7
20260507153214 12 336 3.2 8.0 0.00 1.17 0.64 66 1014.7
20260507152722 12 289 3.2 8.0 0.00 1.17 0.64 67 1014.7
20260507151709 12 318 3.2 16.1 0.00 1.17 0.64 65 1014.7
20260507151216 12 306 6.4 16.1 0.00 1.17 0.64 65 1014.6
20260507150730 13 326 6.4 16.1 0.00 1.19 0.64 65 1014.7
20260507150219 13 331 4.8 16.1 0.00 1.19 0.64 65 1014.7
20260507145725 13 331 1.6 9.7 0.00 1.19 0.64 65 1014.7
20260507145211 13 309 1.6 16.1 0.00 1.22 0.64 68 1014.7
20260507144213 13 24 3.2 16.1 0.00 1.24 0.64 66 1014.7
20260507143716 13 324 0.0 8.0 0.00 1.27 0.64 69 1014.7
20260507143223 12 84 0.0 3.2 0.00 1.27 0.64 69 1014.7
20260507142725 12 246 0.0 8.0 0.00 1.27 0.64 76 1014.7
20260507141716 11 261 0.0 4.8 0.00 1.27 0.64 73 1014.8
20260507140221 11 201 0.0 6.4 0.00 1.30 0.64 76 1015.0
20260507135719 11 263 0.0 9.7 0.00 1.32 0.64 76 1015.0
20260507135225 10 319 1.6 9.7 0.00 1.32 0.64 78 1015.0
20260507134725 10 286 1.6 9.7 0.00 1.35 0.64 79 1015.0
20260507134220 10 331 0.0 6.4 0.00 1.35 0.64 80 1015.1
20260507133722 10 331 0.0 6.4 0.00 1.37 0.64 79 1015.1
20260507133215 10 5 1.6 6.4 0.00 1.40 0.64 79 1015.1
20260507132722 10 315 1.6 6.4 0.00 1.40 0.64 79 1015.1
20260507132221 10 309 0.0 6.4 0.00 1.40 0.64 79 1015.0
20260507131716 10 349 0.0 8.0 0.00 1.42 0.64 79 1015.0
20260507131218 10 277 0.0 8.0 0.00 1.42 0.64 78 1015.0
20260507130727 10 261 1.6 6.4 0.00 1.42 0.64 79 1015.1
20260507130223 10 172 1.6 6.4 0.00 1.42 0.64 78 1015.0
20260507125724 10 165 1.6 6.4 0.00 1.45 0.64 78 1015.0
20260507124719 10 163 0.0 8.0 0.00 1.55 0.64 77 1015.0
20260507124217 10 169 1.6 8.0 0.00 1.55 0.64 77 1015.0
20260507123713 10 151 1.6 0.0 0.00 1.55 0.64 78 1015.0
20260507123217 10 19 0.0 0.0 0.00 1.57 0.64 78 1015.0
20260507122729 10 308 0.0 1.6 0.00 1.60 0.64 77 1015.0
20260507122230 10 331 0.0 3.2 0.00 1.65 0.64 78 1015.0
20260507120708 10 348 0.0 3.2 0.00 1.65 0.64 80 1014.8
20260507120216 10 115 0.0 4.8 0.00 1.65 0.64 81 1014.8
20260507115719 10 119 0.0 4.8 0.00 1.65 0.64 81 1014.8
20260507115212 10 131 0.0 0.0 0.00 1.68 0.64 81 1014.8
20260507114718 10 161 0.0 3.2 0.00 1.68 0.64 80 1014.8
20260507114216 10 35 0.0 3.2 0.00 1.68 0.64 80 1014.8
20260507113718 10 351 0.0 3.2 0.00 1.70 0.64 81 1014.8
20260507113220 10 171 0.0 6.4 0.00 1.73 0.64 82 1014.8
20260507112709 9 161 0.0 6.4 0.00 1.73 0.64 82 1015.0
20260507112217 9 191 1.6 6.4 0.00 1.73 0.64 83 1015.0
20260507111721 9 150 1.6 6.4 0.00 1.75 0.64 84 1015.0
20260507111222 9 174 0.0 6.4 0.00 1.75 0.64 84 1015.0
20260507110223 9 113 0.0 4.8 0.00 1.75 0.64 83 1014.8
20260507105722 9 181 0.0 4.8 0.00 1.75 0.64 83 1015.0
20260507105220 9 141 0.0 4.8 0.00 1.75 0.64 84 1014.8
20260507104717 9 162 0.0 0.0 0.00 1.75 0.64 84 1014.8
20260507104222 9 129 0.0 0.0 0.00 1.75 0.64 84 1014.8
20260507103713 9 130 0.0 0.0 0.00 1.78 0.64 85 1014.8
20260507103218 9 96 0.0 0.0 0.00 1.78 0.64 86 1014.8
20260507102208 8 129 0.0 3.2 0.00 1.80 0.64 86 1015.0
20260507101715 8 140 0.0 4.8 0.00 1.80 0.64 87 1015.0
20260507101248 8 196 0.0 4.8 0.00 1.80 0.64 87 1015.1
20260507100733 8 80 0.0 4.8 0.00 1.80 0.64 87 1015.0
20260507100224 8 119 0.0 4.8 0.00 1.80 0.64 87 1015.0
20260507095726 8 85 0.0 6.4 0.00 1.80 0.64 90 1015.0
20260507094713 8 173 1.6 8.0 0.00 1.80 0.64 90 1015.0
20260507094224 8 209 3.2 8.0 0.00 1.80 0.64 90 1015.0
20260507092722 7 172 1.6 9.7 0.00 1.80 0.64 92 1014.8
20260507092235 7 189 3.2 9.7 0.00 1.80 0.64 92 1014.7
20260507091752 7 152 1.6 9.7 0.00 1.80 0.64 93 1014.7
20260507090724 7 160 0.0 8.0 0.00 1.80 0.64 93 1014.6
20260507090218 7 120 0.0 6.4 0.00 1.80 0.64 93 1014.6
20260507085720 7 166 0.0 6.4 0.00 1.80 0.64 93 1014.5
20260507084713 7 164 0.0 4.8 0.00 1.83 0.64 94 1014.5
20260507084210 7 152 0.0 4.8 0.00 1.83 0.64 94 1014.4
20260507083720 7 130 0.0 8.0 0.00 1.83 0.64 94 1014.4
20260507083213 7 124 1.6 8.0 0.00 1.83 0.64 95 1014.4
20260507082745 7 116 1.6 4.8 0.00 1.83 0.64 95 1014.4
20260507082214 7 138 1.6 4.8 0.00 1.83 0.64 95 1014.3
20260507081726 7 161 0.0 4.8 0.00 1.83 0.64 95 1014.4
20260507081214 7 140 0.0 8.0 0.00 1.83 0.64 95 1014.3
20260507080710 7 161 0.0 8.0 0.00 1.83 0.64 95 1014.3
20260507080209 7 112 1.6 8.0 0.00 1.83 0.64 95 1014.2
20260507075725 7 123 0.0 6.4 0.00 1.83 0.64 95 1014.2
20260507075219 7 140 0.0 8.0 0.00 1.83 0.64 95 1014.2
20260507074710 7 134 1.6 9.7 0.00 1.83 0.64 95 1014.2
20260507074213 6 144 1.6 9.7 0.03 1.83 0.64 95 1014.1
20260507072721 7 126 1.6 11.3 0.03 1.83 0.64 96 1014.0
20260507072228 7 188 1.6 8.0 0.03 1.83 0.64 96 1014.0